When you browse on this site, cookies collect data to enhance your experience and personalize the content and advertising you see.
Visit our Privacy Policy to learn more. By continuing to use the site, you agree to this use of cookies and data.
EN

Hourly Weather Kant

Today, 21 September, Monday

Time Temperature Precipitation Wind Pressure Humidity
00:00 +29°C° 0 mm 0 mps 736 mmHg 61%
01:00 +29°C° 0 mm 0 mps 736 mmHg 62%
02:00 +29°C° 0 mm 0 mps 735 mmHg 63%
03:00 +28°C° 0 mm 0 mps 735 mmHg 65%
04:00 +30°C° 0 mm 1 mps 735 mmHg 67%
05:00 +30°C° 0 mm 1 mps 736 mmHg 70%
06:00 +31°C° 0 mm 1 mps 736 mmHg 67%
07:00 +32°C° 0 mm 1 mps 736 mmHg 64%
08:00 +31°C° 0 mm 0 mps 737 mmHg 61%
09:00 +34°C° 0 mm 1 mps 737 mmHg 56%
10:00 +36°C° 0 mm 1 mps 737 mmHg 52%
11:00 +37°C° 0 mm 1 mps 737 mmHg 47%
12:00 +39°C° 0 mm 1 mps 736 mmHg 45%
13:00 +39°C° 0 mm 1 mps 735 mmHg 43%
14:00 +40°C° 0 mm 2 mps 734 mmHg 41%
15:00 +39°C° 0 mm 2 mps 734 mmHg 45%
16:00 +38°C° 0 mm 2 mps 734 mmHg 49%
17:00 +37°C° 0 mm 2 mps 733 mmHg 53%
18:00 +36°C° 0 mm 2 mps 734 mmHg 54%
19:00 +36°C° 0 mm 2 mps 735 mmHg 55%
20:00 +35°C° 0 mm 2 mps 735 mmHg 56%
21:00 +34°C° 0.1 mm 2 mps 736 mmHg 60%
22:00 +32°C° 0.1 mm 2 mps 736 mmHg 64%
23:00 +33°C° 0.1 mm 3 mps 736 mmHg 68%

Tomorrow, 22 September, Tuesday

Time Temperature Precipitation Wind Pressure Humidity
00:00 +31°C° 0.6 mm 3 mps 736 mmHg 72%
01:00 +30°C° 0.6 mm 2 mps 736 mmHg 77%
02:00 +30°C° 0.6 mm 2 mps 735 mmHg 81%
03:00 +30°C° 0.5 mm 2 mps 735 mmHg 83%
04:00 +29°C° 0.5 mm 3 mps 735 mmHg 84%
05:00 +29°C° 0.5 mm 3 mps 735 mmHg 86%
06:00 +30°C° 0.7 mm 4 mps 736 mmHg 83%
07:00 +32°C° 0.7 mm 4 mps 737 mmHg 79%
08:00 +32°C° 0.7 mm 5 mps 738 mmHg 76%
09:00 +34°C° 0.2 mm 5 mps 737 mmHg 71%
10:00 +35°C° 0.2 mm 5 mps 737 mmHg 67%
11:00 +36°C° 0.2 mm 5 mps 737 mmHg 63%
12:00 +36°C° 0.1 mm 4 mps 736 mmHg 61%
13:00 +37°C° 0.1 mm 4 mps 736 mmHg 58%
14:00 +37°C° 0.1 mm 4 mps 735 mmHg 56%
15:00 +36°C° 1 mm 3 mps 735 mmHg 61%
16:00 +35°C° 1 mm 3 mps 735 mmHg 67%
17:00 +34°C° 1 mm 3 mps 734 mmHg 72%
18:00 +33°C° 0.1 mm 3 mps 735 mmHg 74%
19:00 +31°C° 0.1 mm 3 mps 736 mmHg 77%
20:00 +30°C° 0.1 mm 3 mps 736 mmHg 79%
21:00 +30°C° 0 mm 3 mps 736 mmHg 81%
22:00 +30°C° 0 mm 3 mps 736 mmHg 82%
23:00 +29°C° 0 mm 3 mps 737 mmHg 83%

Day after tomorrow, 23 September, Wednesday

Time Temperature Precipitation Wind Pressure Humidity
00:00 +29°C° 0 mm 3 mps 736 mmHg 84%
01:00 +29°C° 0 mm 3 mps 736 mmHg 84%
02:00 +29°C° 0 mm 3 mps 736 mmHg 84%
03:00 +28°C° 0.2 mm 3 mps 735 mmHg 85%
04:00 +28°C° 0.2 mm 3 mps 735 mmHg 85%
05:00 +28°C° 0.2 mm 3 mps 735 mmHg 86%
06:00 +28°C° 0 mm 4 mps 736 mmHg 84%
07:00 +29°C° 0 mm 5 mps 736 mmHg 83%
08:00 +29°C° 0 mm 6 mps 737 mmHg 81%
09:00 +30°C° 0 mm 6 mps 737 mmHg 78%
10:00 +32°C° 0 mm 6 mps 737 mmHg 75%
11:00 +33°C° 0 mm 7 mps 737 mmHg 72%
12:00 +33°C° 0.1 mm 7 mps 736 mmHg 70%
13:00 +33°C° 0.1 mm 7 mps 736 mmHg 68%
14:00 +33°C° 0.1 mm 7 mps 735 mmHg 67%
15:00 +32°C° 0 mm 7 mps 735 mmHg 71%
16:00 +30°C° 0 mm 6 mps 735 mmHg 76%
17:00 +28°C° 0 mm 6 mps 735 mmHg 81%
18:00 +28°C° 0 mm 6 mps 736 mmHg 81%
19:00 +28°C° 0 mm 5 mps 737 mmHg 82%
20:00 +28°C° 0 mm 5 mps 737 mmHg 82%
21:00 +28°C° 0 mm 5 mps 737 mmHg 83%
22:00 +28°C° 0 mm 5 mps 738 mmHg 84%
23:00 +28°C° 0 mm 5 mps 738 mmHg 85%

24 September, Thursday

Time Temperature Precipitation Wind Pressure Humidity
00:00 +28°C° 0 mm 4 mps 737 mmHg 85%
01:00 +27°C° 0 mm 4 mps 737 mmHg 84%
02:00 +27°C° 0 mm 4 mps 736 mmHg 83%
03:00 +27°C° 0 mm 4 mps 736 mmHg 84%
04:00 +27°C° 0 mm 3 mps 736 mmHg 85%
05:00 +26°C° 0 mm 3 mps 736 mmHg 87%
06:00 +27°C° 0 mm 3 mps 737 mmHg 83%
07:00 +28°C° 0 mm 3 mps 738 mmHg 80%
08:00 +29°C° 0 mm 3 mps 738 mmHg 77%
09:00 +30°C° 0 mm 4 mps 738 mmHg 74%
10:00 +32°C° 0 mm 4 mps 739 mmHg 71%
11:00 +33°C° 0 mm 4 mps 739 mmHg 67%
12:00 +33°C° 0 mm 4 mps 738 mmHg 66%
13:00 +34°C° 0 mm 3 mps 738 mmHg 64%
14:00 +34°C° 0 mm 3 mps 738 mmHg 62%
15:00 +33°C° 0 mm 3 mps 737 mmHg 65%
16:00 +33°C° 0 mm 3 mps 737 mmHg 68%
17:00 +31°C° 0 mm 3 mps 737 mmHg 70%
18:00 +30°C° 0 mm 3 mps 738 mmHg 73%
19:00 +29°C° 0 mm 4 mps 738 mmHg 75%
20:00 +28°C° 0 mm 4 mps 739 mmHg 77%
21:00 +27°C° 0 mm 4 mps 739 mmHg 78%
22:00 +27°C° 0 mm 4 mps 739 mmHg 78%
23:00 +27°C° 0 mm 4 mps 739 mmHg 78%

25 September, Friday

Time Temperature Precipitation Wind Pressure Humidity
00:00 +26°C° 0 mm 3 mps 738 mmHg 80%
01:00 +26°C° 0 mm 2 mps 738 mmHg 82%
02:00 +26°C° 0 mm 1 mps 738 mmHg 84%
03:00 +26°C° 0 mm 1 mps 738 mmHg 85%
04:00 +25°C° 0 mm 1 mps 738 mmHg 86%
05:00 +25°C° 0 mm 1 mps 738 mmHg 87%
06:00 +26°C° 0 mm 1 mps 738 mmHg 83%
07:00 +27°C° 0 mm 1 mps 738 mmHg 79%
08:00 +29°C° 0 mm 2 mps 739 mmHg 75%
09:00 +30°C° 0 mm 2 mps 739 mmHg 70%
10:00 +32°C° 0 mm 2 mps 739 mmHg 64%
11:00 +34°C° 0 mm 2 mps 738 mmHg 58%
12:00 +35°C° 0 mm 2 mps 738 mmHg 55%
13:00 +36°C° 0 mm 2 mps 737 mmHg 52%
14:00 +37°C° 0 mm 2 mps 736 mmHg 48%
15:00 +36°C° 0 mm 2 mps 736 mmHg 50%
16:00 +35°C° 0 mm 1 mps 735 mmHg 52%
17:00 +34°C° 0 mm 1 mps 735 mmHg 53%
18:00 +33°C° 0 mm 1 mps 735 mmHg 57%
19:00 +32°C° 0 mm 2 mps 736 mmHg 61%
20:00 +31°C° 0 mm 2 mps 736 mmHg 64%
21:00 +30°C° 0 mm 3 mps 736 mmHg 67%
22:00 +30°C° 0 mm 3 mps 736 mmHg 69%
23:00 +29°C° 0 mm 4 mps 736 mmHg 72%

26 September, Saturday

Time Temperature Precipitation Wind Pressure Humidity
00:00 +29°C° 0 mm 3 mps 736 mmHg 75%
01:00 +28°C° 0 mm 3 mps 736 mmHg 77%
02:00 +28°C° 0 mm 2 mps 735 mmHg 80%
03:00 +28°C° 0 mm 2 mps 735 mmHg 82%
04:00 +27°C° 0 mm 2 mps 735 mmHg 84%
05:00 +27°C° 0 mm 2 mps 735 mmHg 86%
06:00 +28°C° 0 mm 2 mps 736 mmHg 82%
07:00 +29°C° 0 mm 2 mps 737 mmHg 79%
08:00 +30°C° 0 mm 3 mps 737 mmHg 75%
09:00 +32°C° 0 mm 2 mps 737 mmHg 67%
10:00 +34°C° 0 mm 1 mps 737 mmHg 59%
11:00 +36°C° 0 mm 1 mps 737 mmHg 51%
12:00 +36°C° 0 mm 1 mps 736 mmHg 47%
13:00 +38°C° 0 mm 2 mps 736 mmHg 43%
14:00 +39°C° 0 mm 2 mps 735 mmHg 39%
15:00 +38°C° 0 mm 2 mps 735 mmHg 43%
16:00 +37°C° 0 mm 2 mps 735 mmHg 47%
17:00 +35°C° 0 mm 2 mps 734 mmHg 52%
18:00 +33°C° 0 mm 1 mps 735 mmHg 53%
19:00 +32°C° 0 mm 1 mps 735 mmHg 54%
20:00 +29°C° 0 mm 0 mps 735 mmHg 56%
21:00 +29°C° 0 mm 0 mps 736 mmHg 56%
22:00 +30°C° 0 mm 1 mps 736 mmHg 56%
23:00 +30°C° 0 mm 1 mps 736 mmHg 57%
Show more